sat.trackr.live / text

‹ back to catalog

STARLINK-34181

NORAD 64144 · 2025-111X

PAYLOAD ACTIVE UNKNOWN

§ Identity

Operator
Country
US
Launch date
2025-05-24
Launch site
AFETR
Launch vehicle
Mass (kg)
RCS (m²)

Purposes: comms

External: N2YO · Heavens-Above · Gunter

§ Orbital elements

Epoch: 2026-05-24T23:57:19.348704Z

Period
94.27 min
Inclination
43.0032°
Eccentricity
0.0000995
Mean motion
15.27585374 rev/d
Perigee alt
482.4 km
Apogee alt
483.7 km
Semi-major
6,861.2 km
B*
4.3405e-4
RAAN
6.9310°
Arg perigee
275.8297°
Mean anomaly
84.2441°
Rev number
5,713

§ Raw data

STARLINK-341811 64144U 25111X   26144.99814061  .00011703  00000+0  43405-3 0  99942 64144  43.0032   6.9310 0000995 275.8297  84.2441 15.27585374 57131

JSON: /api/v1/satellites/64144 · /tle

For live sub-satellite position, see the globe view (requires WebGL).

§ Visibility from observer

Set your observer location to see the next 7 days of passes ≥ 10°. The values pass through the URL so the page stays shareable.

No JS? Fill the form by hand. The geolocation button needs JavaScript.